Погода в Большой Таловой

Россия / Ростовская область     46°58′16″N   40°37′06″E
темп.,
°C
ветер,
м/с
пор.,
м/с
влажн.,
%
обл.,
%
осадки,
мм/ч
давл.,
гПа
погр.,
м
24 июля, сб
сб2400:00+20сз47513 0.0 1010103
03:00+18ссз410550 0.0 1011203
06:00+18ссв35590 0.0 1011108
09:00+24ссв44430 0.0 1012539
12:00+28с32330 0.0 10121999
15:00+29с32290 0.0 10112541
18:00+28ссв32311 0.0 10122287
21:00+23ссв33410 0.0 101422
25 июля, вс
вс2500:00+21св23420 0.0 101417
03:00+19св34490 0.0 101554
06:00+19св36580 0.0 1016122
09:00+26всв46400 0.0 1017599
12:00+30всв55280 0.0 10172399
15:00+32всв55259 0.0 10162834
18:00+30всв453020 0.0 10161213
21:00+24всв354059 0.0 101768
26 июля, пн
пн2600:00+24св61141100 0.1 1017245
03:00+22св51248100 0.1 1018302
06:00+21св4955100 0.6 1018159
09:00+22св486199 0.8 1018198
12:00+31всв453184 0.0 10181433
15:00+33всв672916 0.0 10172638
18:00+31всв463117 0.0 1016977
21:00+25св5124727 0.1 1017261
27 июля, вт
вт2700:00+23св484899 0.1 1017126
03:00+24всв4104182 0.1 1017220
06:00+23всв484975 0.1 1018183
09:00+26в4739100 0.2 1018364
12:00+31в5623100 0.0 10181591
15:00+32всв552373 0.0 10182467
18:00+30в552920 0.0 10181065
21:00+25ююв363833 0.0 1019117
28 июля, ср
ср2800:00+23юз364091 0.0 1019130
03:00+20юз33495 0.0 101942
06:00+19юз35555 0.0 1019105
09:00+25зюз334097 0.0 1019544
12:00+27зсз233652 0.0 1018629
15:00+31ссз21304 0.0 10161900
18:00+30в11300 0.0 10151885
21:00+24в224648 0.0 101624